When you browse on this site, cookies collect data to enhance your experience and personalize the content and advertising you see.
Visit our Privacy Policy to learn more. By continuing to use the site, you agree to this use of cookies and data.
  • en Suisse
  • Liste des pays
  • À 7 jours
  • Température de l'eau
  • Carte satellitaire
  • Carte météo
  • Widgets météo
  • user-avatar
    Se connecter

    Météo par heure à Tomashivka

    Ce jour, 26 Avril, Vendredi

    Heure Température Précipitation Vent Pression Humidité
    00:00 +14°C° 0 mm 1 m/s 755 mmHg 57%
    01:00 +14°C° 0 mm 1 m/s 755 mmHg 59%
    02:00 +13°C° 0 mm 1 m/s 755 mmHg 61%
    03:00 +12°C° 0 mm 0 m/s 755 mmHg 62%
    04:00 +12°C° 0 mm 0 m/s 755 mmHg 63%
    05:00 +12°C° 0 mm 0 m/s 754 mmHg 64%
    06:00 +14°C° 0 mm 1 m/s 754 mmHg 59%
    07:00 +16°C° 0 mm 1 m/s 754 mmHg 54%
    08:00 +19°C° 0 mm 1 m/s 754 mmHg 50%
    09:00 +19°C° 0 mm 2 m/s 754 mmHg 47%
    10:00 +21°C° 0 mm 2 m/s 754 mmHg 43%
    11:00 +22°C° 0 mm 3 m/s 754 mmHg 40%
    12:00 +22°C° 0 mm 3 m/s 753 mmHg 40%
    13:00 +22°C° 0 mm 4 m/s 753 mmHg 39%
    14:00 +23°C° 0 mm 4 m/s 753 mmHg 39%
    15:00 +22°C° 0 mm 4 m/s 753 mmHg 41%
    16:00 +22°C° 0 mm 3 m/s 752 mmHg 43%
    17:00 +21°C° 0 mm 3 m/s 752 mmHg 45%
    18:00 +19°C° 0 mm 3 m/s 752 mmHg 46%
    19:00 +18°C° 0 mm 3 m/s 752 mmHg 48%
    20:00 +16°C° 0 mm 2 m/s 752 mmHg 50%
    21:00 +15°C° 0 mm 2 m/s 752 mmHg 52%
    22:00 +15°C° 0 mm 2 m/s 751 mmHg 54%
    23:00 +14°C° 0 mm 2 m/s 751 mmHg 56%

    Demain, 27 Avril, Samedi

    Heure Température Précipitation Vent Pression Humidité
    00:00 +14°C° 0 mm 2 m/s 751 mmHg 61%
    01:00 +12°C° 0 mm 3 m/s 751 mmHg 66%
    02:00 +12°C° 0 mm 3 m/s 751 mmHg 70%
    03:00 +12°C° 0 mm 3 m/s 751 mmHg 72%
    04:00 +11°C° 0 mm 3 m/s 750 mmHg 74%
    05:00 +11°C° 0 mm 3 m/s 750 mmHg 75%
    06:00 +12°C° 0 mm 4 m/s 750 mmHg 70%
    07:00 +14°C° 0 mm 4 m/s 750 mmHg 64%
    08:00 +15°C° 0 mm 5 m/s 749 mmHg 59%
    09:00 +17°C° 0 mm 5 m/s 749 mmHg 55%
    10:00 +19°C° 0 mm 5 m/s 749 mmHg 50%
    11:00 +20°C° 0 mm 6 m/s 749 mmHg 46%
    12:00 +21°C° 0 mm 6 m/s 749 mmHg 46%
    13:00 +21°C° 0 mm 6 m/s 748 mmHg 45%
    14:00 +22°C° 0 mm 6 m/s 748 mmHg 45%
    15:00 +21°C° 0.1 mm 5 m/s 747 mmHg 51%
    16:00 +20°C° 0.1 mm 4 m/s 747 mmHg 58%
    17:00 +19°C° 0.1 mm 3 m/s 747 mmHg 64%
    18:00 +18°C° 0.1 mm 3 m/s 746 mmHg 67%
    19:00 +17°C° 0.1 mm 4 m/s 746 mmHg 69%
    20:00 +14°C° 0.1 mm 4 m/s 746 mmHg 72%
    21:00 +14°C° 0.2 mm 4 m/s 746 mmHg 72%
    22:00 +14°C° 0.2 mm 5 m/s 745 mmHg 73%
    23:00 +14°C° 0.2 mm 5 m/s 745 mmHg 73%

    Après-demain, 28 Avril, Dimanche

    Heure Température Précipitation Vent Pression Humidité
    00:00 +14°C° 0.9 mm 5 m/s 745 mmHg 77%
    01:00 +14°C° 0.9 mm 5 m/s 745 mmHg 80%
    02:00 +14°C° 0.9 mm 5 m/s 745 mmHg 84%
    03:00 +13°C° 0.1 mm 5 m/s 745 mmHg 85%
    04:00 +13°C° 0.1 mm 4 m/s 744 mmHg 86%
    05:00 +13°C° 0.1 mm 4 m/s 744 mmHg 87%
    06:00 +13°C° 0 mm 4 m/s 744 mmHg 83%
    07:00 +14°C° 0 mm 4 m/s 744 mmHg 80%
    08:00 +15°C° 0 mm 4 m/s 744 mmHg 76%
    09:00 +18°C° 0 mm 4 m/s 744 mmHg 71%
    10:00 +19°C° 0 mm 4 m/s 744 mmHg 67%
    11:00 +21°C° 0 mm 5 m/s 744 mmHg 62%
    12:00 +21°C° 0.2 mm 4 m/s 744 mmHg 60%
    13:00 +22°C° 0.2 mm 4 m/s 744 mmHg 58%
    14:00 +23°C° 0.2 mm 4 m/s 744 mmHg 55%
    15:00 +21°C° 1.8 mm 4 m/s 744 mmHg 63%
    16:00 +20°C° 1.8 mm 3 m/s 744 mmHg 72%
    17:00 +18°C° 1.8 mm 3 m/s 744 mmHg 80%
    18:00 +18°C° 0.5 mm 2 m/s 745 mmHg 83%
    19:00 +17°C° 0.5 mm 2 m/s 745 mmHg 87%
    20:00 +16°C° 0.5 mm 2 m/s 745 mmHg 91%
    21:00 +16°C° 0.3 mm 3 m/s 745 mmHg 91%
    22:00 +14°C° 0.3 mm 4 m/s 746 mmHg 92%
    23:00 +14°C° 0.3 mm 4 m/s 746 mmHg 93%

    29 Avril, Lundi

    Heure Température Précipitation Vent Pression Humidité
    00:00 +13°C° 0.4 mm 5 m/s 746 mmHg 92%
    01:00 +12°C° 0.4 mm 5 m/s 746 mmHg 91%
    02:00 +11°C° 0.4 mm 6 m/s 746 mmHg 90%
    03:00 +10°C° 0.6 mm 6 m/s 747 mmHg 90%
    04:00 +10°C° 0.6 mm 6 m/s 747 mmHg 89%
    05:00 +9°C° 0.6 mm 6 m/s 747 mmHg 89%
    06:00 +8°C° 1.6 mm 7 m/s 747 mmHg 88%
    07:00 +6°C° 1.6 mm 7 m/s 748 mmHg 87%
    08:00 +6°C° 1.6 mm 8 m/s 748 mmHg 86%
    09:00 +5°C° 1.9 mm 7 m/s 748 mmHg 83%
    10:00 +5°C° 1.9 mm 7 m/s 749 mmHg 81%
    11:00 +5°C° 1.9 mm 7 m/s 749 mmHg 79%
    12:00 +6°C° 1.1 mm 7 m/s 749 mmHg 78%
    13:00 +7°C° 1.1 mm 6 m/s 749 mmHg 77%
    14:00 +8°C° 1.1 mm 6 m/s 749 mmHg 76%
    15:00 +8°C° 0.2 mm 6 m/s 748 mmHg 76%
    16:00 +8°C° 0.2 mm 5 m/s 748 mmHg 75%
    17:00 +9°C° 0.2 mm 5 m/s 748 mmHg 74%
    18:00 +8°C° 0.1 mm 5 m/s 748 mmHg 75%
    19:00 +8°C° 0.1 mm 5 m/s 748 mmHg 75%
    20:00 +8°C° 0.1 mm 5 m/s 748 mmHg 76%
    21:00 +7°C° 0.3 mm 5 m/s 748 mmHg 77%
    22:00 +7°C° 0.3 mm 5 m/s 748 mmHg 78%
    23:00 +7°C° 0.3 mm 5 m/s 748 mmHg 79%

    30 Avril, Mardi

    Heure Température Précipitation Vent Pression Humidité
    00:00 +6°C° 0.4 mm 5 m/s 748 mmHg 80%
    01:00 +6°C° 0.4 mm 5 m/s 747 mmHg 82%
    02:00 +6°C° 0.4 mm 5 m/s 747 mmHg 83%
    03:00 +6°C° 0.4 mm 5 m/s 747 mmHg 84%
    04:00 +6°C° 0.4 mm 5 m/s 746 mmHg 85%
    05:00 +6°C° 0.4 mm 5 m/s 746 mmHg 85%
    06:00 +5°C° 0.4 mm 6 m/s 746 mmHg 85%
    07:00 +5°C° 0.4 mm 6 m/s 746 mmHg 84%
    08:00 +5°C° 0.4 mm 6 m/s 745 mmHg 84%
    09:00 +5°C° 0.6 mm 6 m/s 745 mmHg 85%
    10:00 +5°C° 0.6 mm 6 m/s 745 mmHg 86%
    11:00 +5°C° 0.6 mm 6 m/s 745 mmHg 87%
    12:00 +5°C° 0.5 mm 6 m/s 745 mmHg 87%
    13:00 +7°C° 0.5 mm 6 m/s 744 mmHg 87%
    14:00 +7°C° 0.5 mm 6 m/s 744 mmHg 87%
    15:00 +5°C° 0.4 mm 6 m/s 744 mmHg 87%
    16:00 +5°C° 0.4 mm 6 m/s 744 mmHg 88%
    17:00 +6°C° 0.4 mm 5 m/s 743 mmHg 88%
    18:00 +6°C° 0.4 mm 5 m/s 743 mmHg 89%
    19:00 +5°C° 0.4 mm 5 m/s 743 mmHg 90%
    20:00 +5°C° 0.4 mm 5 m/s 743 mmHg 91%
    21:00 +5°C° 0.5 mm 5 m/s 743 mmHg 92%
    22:00 +5°C° 0.5 mm 5 m/s 743 mmHg 92%
    23:00 +3°C° 0.5 mm 5 m/s 743 mmHg 92%

    1 Mai, Mercredi

    Heure Température Précipitation Vent Pression Humidité
    00:00 +3°C° 0.5 mm 5 m/s 742 mmHg 92%
    01:00 +3°C° 0.5 mm 5 m/s 742 mmHg 92%
    02:00 +3°C° 0.5 mm 5 m/s 742 mmHg 92%
    03:00 +3°C° 0.1 mm 5 m/s 742 mmHg 91%
    04:00 +3°C° 0.1 mm 5 m/s 742 mmHg 91%
    05:00 +2°C° 0.1 mm 5 m/s 742 mmHg 90%
    06:00 +3°C° 0 mm 5 m/s 742 mmHg 86%
    07:00 +5°C° 0 mm 6 m/s 742 mmHg 81%
    08:00 +6°C° 0 mm 7 m/s 742 mmHg 77%
    09:00 +8°C° 0 mm 7 m/s 742 mmHg 71%
    10:00 +9°C° 0 mm 7 m/s 742 mmHg 65%
    11:00 +10°C° 0 mm 7 m/s 742 mmHg 59%
    12:00 +10°C° 0.1 mm 6 m/s 742 mmHg 58%
    13:00 +10°C° 0.1 mm 6 m/s 742 mmHg 58%
    14:00 +11°C° 0.1 mm 6 m/s 742 mmHg 57%
    15:00 +10°C° 0.1 mm 5 m/s 742 mmHg 58%
    16:00 +10°C° 0.1 mm 5 m/s 743 mmHg 59%
    17:00 +10°C° 0.1 mm 5 m/s 743 mmHg 60%
    18:00 +10°C° 0.1 mm 4 m/s 743 mmHg 65%
    19:00 +9°C° 0.1 mm 3 m/s 743 mmHg 70%
    20:00 +7°C° 0.1 mm 3 m/s 743 mmHg 75%
    21:00 +7°C° 0 mm 3 m/s 743 mmHg 75%
    22:00 +5°C° 0 mm 3 m/s 743 mmHg 76%
    23:00 +4°C° 0 mm 3 m/s 744 mmHg 76%
    Voir plus